Find Starlink 32584

NORAD ID: 62179 Int'l Des: 2024-225 Owner: SPXS Country: US Constellation: starlink operational
LEOCIRCULAR

当前视图

正在加载3D地球...

About Starlink 32584

Starlink 32584 (NORAD 62179) is a starlink constellation satellite (v2 mini) launched Nov 30, 2024 by SPXS of US. It operates in LEO, CIRCULAR orbit with a mass of 730.00 kg.

关于 Starlink 32584

正在加载描述...

即将过境

Passes for default location (London). Set your location on the main map for personalized predictions.

高度历史

Loading altitude history...

两行轨道根数

1 62179U 24225S 26170.68637909 .00002767 00000-0 23959-3 0 9997
2 62179 70.0006 267.1992 0003255 269.6594 90.4192 14.98337109 85151
Epoch: Jun 19, 2026 • Age: 10 hours

当前状态

高度 575.1 km
速度 7.57 km/s
星下点 -5.13°S, 34.91°W
发射日期 Nov 30, 2024
运行时间 1.5 years
类型 internet

技术详情

分类 Payload
质量 730.00 kg
干质量 700.00 kg
总质量 730.00 kg
长度 0.30 m
直径 4.10 m
跨度 29.00 m
形状 Box + pan
制造商 SPXS
平台类型 Starlink V2M
阶段状态 In Orbit
所有者/国家 SPXS/US

Most Searched